Notices

What's New in latest Release from April 7th, 2021:

- Updated Glossary, including Speed of Maximum Gust, and Total Hourly Precipitation

- Updated national and regional climate services offices contacts and prices information

- Addition of station inventory lists for 1981-2010, 1971-2000, and 1961-1990 Normals.

If you haven't already, please take our survey and provide feedback about our website: https://eccc.sondage-survey.ca/f/LanguageSelection.aspx?s=442ca660-fcf1-47c0-95a9-59707d6fd709

Hourly Data Report for December 20, 2020

MUSKOKA
ONTARIO
Current Station Operator: NAVCAN

44°58'29.000" N
79°18'12.000" W
281.90 m
6115529
71532
YQA

Download Data

Hourly Data (December 2020)
Hourly Data Report for December 20, 2020
TIME
LST
Temp Definition
°C
Dew Point Definition
°C
Rel Hum Definition
%
Precip. Amount Definition
mm

Wind Dir Definition
10's deg

Wind Spd Definition
km/h
Visibility Definition
km
Stn Press Definition
kPa
Hmdx Definition


Wind Chill Definition


Weather Definition


00:00 -0.6 -1.2 96 LegendMM 15 13 4.0 98.15   -5 Snow
01:00 -0.5 -1.1 96 LegendMM 14 13 4.8 98.07   -5 Snow
02:00 -0.3 -0.7 97 LegendMM 15 13 3.2 98.04   -4 Freezing Rain,Fog
03:00 -0.1 -0.5 97 LegendMM 15 11 3.2 98.03   -4 Freezing Rain,Fog
04:00 0.0 -0.3 98 LegendMM 15 13 2.4 97.94   -4 Freezing Rain,Fog
05:00 0.1 -0.2 98 LegendMM 15 15 1.2 97.86     Rain,Fog
06:00 0.1 -0.2 98 LegendMM 15 15 0.8 97.80     Rain,Fog
07:00 0.2 0.1 99 LegendMM 16 11 0.8 97.78     Rain,Fog
08:00 0.2 0.1 99 LegendMM 15 13 0.8 97.73     Rain,Fog
09:00 0.3 0.2 99 LegendMM 15 15 1.0 97.70     Fog
10:00 0.3 0.2 99 LegendMM 16 11 2.0 97.67     Snow
11:00 0.2 0.1 99 LegendMM 16 9 3.6 97.60     Snow
12:00 0.4 0.3 99 LegendMM 16 11 2.4 97.50     Snow
13:00 0.6 0.5 99 LegendMM 17 11 2.0 97.42     Rain,Fog
14:00 0.9 0.8 99 LegendMM 18 11 4.8 97.34     Rain,Fog
15:00 1.4 1.0 97 LegendMM 18 9 9.7 97.30     Fog
16:00 1.4 1.0 97 LegendMM 19 11 8.1 97.35     Fog
17:00 1.1 0.7 97 LegendMM 17 9 6.4 97.37     Rain,Fog
18:00 1.3 0.4 94 LegendMM 18 18 6.4 97.33     Fog
19:00 1.4 -0.1 90 LegendMM 20 13 9.7 97.34     Fog
20:00 1.0 -0.3 91 LegendMM 19 13 9.7 97.34     Fog
21:00 1.1 -0.1 92 LegendMM 18 13 6.4 97.33     Rain,Fog
22:00 0.9 0.2 95 LegendMM 22 11 3.6 97.33     Rain,Fog
23:00 0.8 0.1 95 LegendMM 20 8 3.6 97.32     Rain,Fog

Notes on Data Quality.

Legend

  • E = Estimated
  • M = Missing
  • NA = Not Available*
  • [empty] = Indicates an unobserved value
Date modified: